ZL1CTS-13 Weather Reports


Display with metric or nautical units.
time (UTC)temp
F
wind
direction
speed
MPH
gust
MPH
rain 1hr
in
rain 24hr
in
rain mn
in
humidity
%
barometer
mb
20260505035003 68 0 1.0 2.0 0.00 0.00 0.00 58 1021.5
20260505034003 68 0 0.0 1.0 0.00 0.00 0.00 59 1021.5
20260505033003 68 14 1.0 2.0 0.00 0.00 0.00 58 1021.6
20260505032007 69 297 1.0 5.0 0.00 0.00 0.00 57 1021.5
20260505031003 69 333 2.0 5.0 0.00 0.00 0.00 59 1021.5
20260505030005 69 332 1.0 3.0 0.00 0.00 0.00 57 1021.4
20260505025005 70 288 1.0 6.0 0.00 0.00 0.00 55 1021.4
20260505024004 70 6 2.0 6.0 0.00 0.00 0.00 57 1021.5
20260505023003 70 242 2.0 5.0 0.00 0.00 0.00 56 1021.5
20260505022003 71 345 2.0 3.0 0.00 0.00 0.00 55 1021.4
20260505021003 75 321 1.0 1.0 0.00 0.00 0.00 52 1021.3
20260505020004 75 259 0.0 3.0 0.00 0.00 0.00 47 1021.5
20260505015004 75 101 1.0 3.0 0.00 0.00 0.00 49 1021.6
20260505014004 76 54 1.0 3.0 0.00 0.00 0.00 49 1021.6
20260505013003 75 201 1.0 3.0 0.00 0.00 0.00 47 1021.7
20260505012003 75 93 1.0 2.0 0.00 0.00 0.00 51 1021.8
20260505011003 75 78 1.0 2.0 0.00 0.00 0.00 52 1021.9
20260505010004 76 57 0.0 3.0 0.00 0.00 0.00 51 1022.0
20260505005004 74 68 1.0 3.0 0.00 0.00 0.00 55 1022.4
20260505004004 70 286 1.0 3.0 0.00 0.00 0.00 56 1022.4
20260505003004 70 33 3.0 3.0 0.00 0.00 0.00 54 1022.7
20260505002004 73 350 1.0 1.0 0.00 0.00 0.00 55 1022.8
20260505001004 71 0 0.0 3.0 0.00 0.00 0.00 58 1022.8
20260505000004 72 45 0.0 3.0 0.00 0.00 0.00 56 1023.0
20260504235004 73 82 0.0 6.0 0.00 0.00 0.00 54 1023.0
20260504234003 74 11 0.0 2.0 0.00 0.00 0.00 56 1023.1
20260504233003 74 56 0.0 1.0 0.00 0.00 0.00 55 1023.2
20260504232004 74 69 1.0 3.0 0.00 0.00 0.00 54 1023.2
20260504231004 73 225 0.0 3.0 0.00 0.00 0.00 58 1023.3
20260504230003 73 39 1.0 5.0 0.00 0.00 0.00 56 1023.5
20260504225004 70 45 1.0 3.0 0.00 0.00 0.00 59 1023.4
20260504224004 70 86 1.0 3.0 0.00 0.00 0.00 60 1023.4
20260504223004 69 45 1.0 3.0 0.00 0.00 0.00 62 1023.4
20260504222003 69 42 1.0 3.0 0.00 0.00 0.00 62 1023.4
20260504221004 68 268 0.0 3.0 0.00 0.00 0.00 64 1023.4
20260504220004 68 123 1.0 3.0 0.00 0.00 0.00 67 1023.4
20260504215004 66 119 0.0 3.0 0.00 0.00 0.00 72 1023.4
20260504214003 65 290 1.0 3.0 0.00 0.00 0.00 75 1023.4
20260504213007 62 14 0.0 3.0 0.00 0.00 0.00 83 1023.4
20260504212006 58 271 1.0 3.0 0.00 0.00 0.00 87 1023.5
20260504211005 57 301 0.0 3.0 0.00 0.00 0.00 89 1023.5
20260504210005 56 172 1.0 6.0 0.00 0.00 0.00 90 1023.4
20260504205005 55 225 1.0 6.0 0.00 0.00 0.00 90 1023.4
20260504204005 54 174 0.0 2.0 0.00 0.00 0.00 90 1023.3
20260504203005 54 181 1.0 5.0 0.00 0.00 0.00 90 1023.5
20260504202005 53 227 1.0 2.0 0.00 0.00 0.00 91 1023.3
20260504201005 53 248 0.0 1.0 0.00 0.00 0.00 90 1023.5
20260504200003 53 89 1.0 2.0 0.00 0.00 0.00 90 1023.3
20260504195004 53 232 0.0 3.0 0.00 0.00 0.00 90 1023.3
20260504194004 53 285 1.0 5.0 0.00 0.00 0.00 90 1023.3
20260504193004 53 35 2.0 6.0 0.00 0.00 0.00 91 1023.3
20260504192004 52 2 3.0 6.0 0.00 0.00 0.00 92 1023.3
20260504191003 52 174 1.0 5.0 0.00 0.00 0.00 92 1023.3
20260504190004 52 45 1.0 3.0 0.00 0.00 0.00 93 1023.3
20260504185004 52 228 1.0 2.0 0.00 0.00 0.00 93 1023.2
20260504184004 52 161 1.0 3.0 0.00 0.00 0.00 93 1023.3
20260504183004 52 248 1.0 2.0 0.00 0.00 0.00 94 1023.2
20260504182004 51 185 1.0 3.0 0.00 0.00 0.00 93 1023.2
20260504181004 51 167 0.0 3.0 0.00 0.00 0.00 93 1023.4
20260504180004 51 164 0.0 1.0 0.00 0.00 0.00 93 1023.4
20260504175004 52 85 0.0 1.0 0.00 0.00 0.00 93 1023.4
20260504174004 51 199 1.0 1.0 0.00 0.00 0.00 93 1023.3
20260504173004 51 306 0.0 1.0 0.00 0.00 0.00 93 1023.4
20260504172004 52 45 0.0 0.0 0.00 0.00 0.00 92 1023.4
20260504171003 53 45 0.0 1.0 0.00 0.00 0.00 92 1023.3
20260504151006 51 15 1.0 2.0 0.00 0.00 0.00 97 1024.0
20260504141004 51 180 0.0 1.0 0.00 0.00 0.00 95 1024.7
20260504082003 55 135 0.0 1.0 0.00 0.00 0.00 89 1025.1
20260504081003 55 135 0.0 3.0 0.00 0.00 0.00 89 1025.1
20260504050004 62 0 0.0 1.0 0.00 0.00 0.00 74 1024.2
20260504045003 60 0 1.0 2.0 0.00 0.00 0.00 75 1024.1
20260504044004 61 277 0.0 2.0 0.00 0.00 0.00 74 1024.2
20260504043004 61 315 0.0 1.0 0.00 0.00 0.00 73 1024.2
20260504042004 61 315 1.0 3.0 0.00 0.00 0.00 71 1024.3
20260504041004 62 332 2.0 3.0 0.00 0.00 0.00 70 1024.3
20260504040004 64 17 1.0 3.0 0.00 0.00 0.00 68 1024.3